AAL1306 KCMH-KCLT

Flight info

Callsign AAL1306
Flight time 0h 51m
Altitude 31000
Route POBSE OHIOS SPAYD LNDIZ PARQR4
Aircraft A319/M-SDE3FGHIRWY/LB1

Departure

Time 2026-05-05 00:53
Airport John Glenn Columbus International Airport (KCMH)

Arrival

Time 2026-05-05 01:44
Airport Charlotte Douglas International Airport (KCLT)
Time Latitude Longitude Altitude Speed Heading
2026-05-05 00:36 39.99838 -82.88094 822 ft 0 kts 183°
2026-05-05 00:46 39.99844 -82.88093 825 ft 3 kts 179°
2026-05-05 00:46 39.99867 -82.88097 824 ft 3 kts 157°
2026-05-05 00:46 39.99887 -82.88112 821 ft 3 kts 143°
2026-05-05 00:46 39.99906 -82.88130 823 ft 3 kts 148°
2026-05-05 00:47 39.99924 -82.88140 820 ft 1 kts 183°
2026-05-05 00:47 39.99925 -82.88140 820 ft 0 kts 183°
2026-05-05 00:50 39.99924 -82.88140 820 ft 0 kts 183°
2026-05-05 00:50 39.99922 -82.88132 821 ft 1 kts 114°
2026-05-05 00:50 39.99932 -82.88124 825 ft 7 kts 33°
2026-05-05 00:50 39.99969 -82.88061 825 ft 10 kts 82°
2026-05-05 00:51 39.99971 -82.87977 825 ft 10 kts 68°
2026-05-05 00:51 40.00031 -82.87943 825 ft 11 kts
2026-05-05 00:51 40.00110 -82.87938 824 ft 12 kts
2026-05-05 00:51 40.00161 -82.87946 824 ft 6 kts 310°
2026-05-05 00:52 40.00165 -82.87983 824 ft 0 kts 272°
2026-05-05 00:52 40.00169 -82.88071 824 ft 40 kts 273°
2026-05-05 00:52 40.00208 -82.88788 827 ft 115 kts 274°
2026-05-05 00:52 40.00273 -82.90096 926 ft 164 kts 269°
2026-05-05 00:53 40.00383 -82.91633 1503 ft 177 kts 271°
2026-05-05 00:53 40.00530 -82.93293 2136 ft 189 kts 272°
2026-05-05 00:53 40.00522 -82.94976 2825 ft 187 kts 249°
2026-05-05 00:53 39.99744 -82.96390 3194 ft 207 kts 216°
2026-05-05 00:54 39.98283 -82.96963 3688 ft 239 kts 181°
2026-05-05 00:54 39.96619 -82.96320 4453 ft 258 kts 163°
2026-05-05 00:54 39.94996 -82.95281 5543 ft 263 kts 160°
2026-05-05 00:54 39.93387 -82.94149 6547 ft 268 kts 159°
2026-05-05 00:55 39.91739 -82.92962 7483 ft 274 kts 159°
2026-05-05 00:55 39.90050 -82.91753 8399 ft 280 kts 160°
2026-05-05 00:55 39.88307 -82.90535 9296 ft 288 kts 161°
2026-05-05 00:55 39.86510 -82.89302 10172 ft 296 kts 161°
2026-05-05 00:56 39.84618 -82.88024 10595 ft 319 kts 160°
2026-05-05 00:56 39.82571 -82.86654 10994 ft 341 kts 160°
2026-05-05 00:56 39.80425 -82.85207 11670 ft 351 kts 159°
2026-05-05 00:56 39.78278 -82.83744 12452 ft 357 kts 158°
2026-05-05 00:57 39.76064 -82.82231 13123 ft 363 kts 158°
2026-05-05 00:57 39.73811 -82.80697 13576 ft 367 kts 158°
2026-05-05 00:57 39.71533 -82.79153 13980 ft 371 kts 158°
2026-05-05 00:57 39.69235 -82.77602 14402 ft 374 kts 158°
2026-05-05 00:58 39.66908 -82.76033 15021 ft 378 kts 157°
2026-05-05 00:58 39.64597 -82.74475 15753 ft 382 kts 157°
2026-05-05 00:58 39.62192 -82.72858 16490 ft 386 kts 157°
2026-05-05 00:58 39.59792 -82.71250 17204 ft 390 kts 157°
2026-05-05 00:59 39.57397 -82.69654 17880 ft 395 kts 156°
2026-05-05 00:59 39.54942 -82.68014 18526 ft 399 kts 156°
2026-05-05 00:59 39.52464 -82.66350 19156 ft 403 kts 156°
2026-05-05 00:59 39.49972 -82.64678 19796 ft 406 kts 156°
2026-05-05 01:00 39.47412 -82.63110 20432 ft 406 kts 163°
2026-05-05 01:00 39.44711 -82.62118 21059 ft 404 kts 174°
2026-05-05 01:00 39.41925 -82.61765 21694 ft 401 kts 184°
2026-05-05 01:00 39.39141 -82.61970 22326 ft 401 kts 189°
2026-05-05 01:01 39.36349 -82.62261 22938 ft 404 kts 189°
2026-05-05 01:01 39.33532 -82.62554 23499 ft 408 kts 189°
2026-05-05 01:01 39.30691 -82.62846 23964 ft 411 kts 189°
2026-05-05 01:01 39.27822 -82.63135 24440 ft 414 kts 189°
2026-05-05 01:02 39.24941 -82.63417 24916 ft 417 kts 189°
2026-05-05 01:02 39.22038 -82.63705 25381 ft 419 kts 189°
2026-05-05 01:02 39.19126 -82.63996 25857 ft 422 kts 189°
2026-05-05 01:02 39.16189 -82.64300 26308 ft 425 kts 189°
2026-05-05 01:03 39.13232 -82.64603 26759 ft 428 kts 189°
2026-05-05 01:03 39.10256 -82.64905 27195 ft 430 kts 189°
2026-05-05 01:03 39.07261 -82.65205 27649 ft 433 kts 189°
2026-05-05 01:03 39.04248 -82.65502 28097 ft 435 kts 189°
2026-05-05 01:04 39.01225 -82.65809 28530 ft 438 kts 189°
2026-05-05 01:04 38.95148 -82.66424 29372 ft 443 kts 189°
2026-05-05 01:04 38.92027 -82.66739 29788 ft 445 kts 189°
2026-05-05 01:05 38.88926 -82.67047 30121 ft 448 kts 189°
2026-05-05 01:05 38.85847 -82.67311 30449 ft 453 kts 186°
2026-05-05 01:05 38.82682 -82.67099 30749 ft 461 kts 177°
2026-05-05 01:05 38.79532 -82.66239 30843 ft 462 kts 167°
2026-05-05 01:06 38.73647 -82.63056 30859 ft 457 kts 160°
2026-05-05 01:06 38.67854 -82.59768 30866 ft 455 kts 160°
2026-05-05 01:07 38.62056 -82.56507 30879 ft 455 kts 161°
2026-05-05 01:07 38.56268 -82.53240 30876 ft 455 kts 161°
2026-05-05 01:08 38.50476 -82.49969 30874 ft 455 kts 161°
2026-05-05 01:08 38.44701 -82.46703 30866 ft 454 kts 161°
2026-05-05 01:09 38.38922 -82.43441 30857 ft 454 kts 161°
2026-05-05 01:09 38.33133 -82.40186 30861 ft 454 kts 161°
2026-05-05 01:10 38.27342 -82.36952 30859 ft 455 kts 161°
2026-05-05 01:10 38.21578 -82.33738 30864 ft 456 kts 161°
2026-05-05 01:11 38.15775 -82.30508 30866 ft 455 kts 162°
2026-05-05 01:11 38.09938 -82.27376 30876 ft 455 kts 162°
2026-05-05 01:12 38.04090 -82.24277 30874 ft 455 kts 162°
2026-05-05 01:12 37.98244 -82.21170 30879 ft 456 kts 162°
2026-05-05 01:13 37.92405 -82.18047 30874 ft 456 kts 162°
2026-05-05 01:13 37.86558 -82.14924 30882 ft 456 kts 162°
2026-05-05 01:14 37.80710 -82.11821 30889 ft 456 kts 162°
2026-05-05 01:14 37.74847 -82.08718 30903 ft 457 kts 162°
2026-05-05 01:15 37.69977 -82.06138 30910 ft 457 kts 162°
2026-05-05 01:15 37.64119 -82.03026 30896 ft 457 kts 162°
2026-05-05 01:16 37.58261 -81.99925 30904 ft 456 kts 162°
2026-05-05 01:16 37.52405 -81.96846 30914 ft 456 kts 162°
2026-05-05 01:17 37.46558 -81.93769 30925 ft 456 kts 162°
2026-05-05 01:17 37.40705 -81.90693 30915 ft 455 kts 162°
2026-05-05 01:18 37.33917 -81.87127 30928 ft 455 kts 162°
2026-05-05 01:18 37.29023 -81.84563 30931 ft 454 kts 162°
2026-05-05 01:19 37.22245 -81.81015 31003 ft 454 kts 162°
2026-05-05 01:19 37.17388 -81.78486 31002 ft 454 kts 162°
2026-05-05 01:20 37.11448 -81.76027 31004 ft 445 kts 175°
2026-05-05 01:20 37.08388 -81.75602 30770 ft 439 kts 184°
2026-05-05 01:20 37.05350 -81.75716 30523 ft 436 kts 188°
2026-05-05 01:21 37.02319 -81.75935 30278 ft 437 kts 189°
2026-05-05 01:21 36.99288 -81.76168 30058 ft 437 kts 189°
2026-05-05 01:21 36.93203 -81.76653 30025 ft 438 kts 189°
2026-05-05 01:22 36.87128 -81.77192 30022 ft 438 kts 189°
2026-05-05 01:22 36.81061 -81.77745 30003 ft 438 kts 189°
2026-05-05 01:23 36.74980 -81.78280 30010 ft 438 kts 189°
2026-05-05 01:23 36.68907 -81.78815 30002 ft 437 kts 189°
2026-05-05 01:24 36.65868 -81.79082 29847 ft 438 kts 189°
2026-05-05 01:24 36.62828 -81.79351 29562 ft 438 kts 189°
2026-05-05 01:24 36.59824 -81.79611 29284 ft 438 kts 189°
2026-05-05 01:24 36.56742 -81.79874 28987 ft 438 kts 188°
2026-05-05 01:25 36.53754 -81.80125 28306 ft 434 kts 188°
2026-05-05 01:25 36.50766 -81.80373 27670 ft 429 kts 188°
2026-05-05 01:25 36.47805 -81.80608 27152 ft 422 kts 186°
2026-05-05 01:25 36.44901 -81.80413 26914 ft 415 kts 176°
2026-05-05 01:26 36.42106 -81.79569 26617 ft 414 kts 165°
2026-05-05 01:26 36.39474 -81.78105 26058 ft 418 kts 155°
2026-05-05 01:26 36.36930 -81.76369 25531 ft 415 kts 155°
2026-05-05 01:26 36.34412 -81.74651 24936 ft 414 kts 155°
2026-05-05 01:27 36.31899 -81.72941 24542 ft 408 kts 155°
2026-05-05 01:27 36.29418 -81.71257 24106 ft 405 kts 155°
2026-05-05 01:27 36.26955 -81.69589 23662 ft 402 kts 155°
2026-05-05 01:27 36.24508 -81.67941 23164 ft 398 kts 155°
2026-05-05 01:28 36.22086 -81.66313 22634 ft 395 kts 155°
2026-05-05 01:28 36.19674 -81.64692 22082 ft 393 kts 155°
2026-05-05 01:28 36.17273 -81.63075 21541 ft 392 kts 155°
2026-05-05 01:28 36.14887 -81.61469 21033 ft 390 kts 155°
2026-05-05 01:29 36.12516 -81.59877 20528 ft 387 kts 155°
2026-05-05 01:29 36.10154 -81.58293 20039 ft 384 kts 155°
2026-05-05 01:29 36.07810 -81.56721 19563 ft 382 kts 155°
2026-05-05 01:29 36.05513 -81.55184 19094 ft 379 kts 155°
2026-05-05 01:30 36.03168 -81.53619 18621 ft 377 kts 154°
2026-05-05 01:30 36.00903 -81.52101 18149 ft 375 kts 154°
2026-05-05 01:30 35.98622 -81.50565 17642 ft 372 kts 154°
2026-05-05 01:30 35.96350 -81.49037 17171 ft 369 kts 154°
2026-05-05 01:31 35.94109 -81.47530 16689 ft 366 kts 154°
2026-05-05 01:31 35.91880 -81.46036 16252 ft 363 kts 154°
2026-05-05 01:31 35.89666 -81.44557 15802 ft 360 kts 154°
2026-05-05 01:31 35.87463 -81.43092 15361 ft 358 kts 154°
2026-05-05 01:32 35.85337 -81.41678 14982 ft 355 kts 154°
2026-05-05 01:32 35.83168 -81.40237 14568 ft 353 kts 154°
2026-05-05 01:32 35.81036 -81.38817 14361 ft 343 kts 154°
2026-05-05 01:32 35.78978 -81.37442 14094 ft 329 kts 154°
2026-05-05 01:33 35.76995 -81.36106 13563 ft 323 kts 154°
2026-05-05 01:33 35.75046 -81.34747 12965 ft 319 kts 153°
2026-05-05 01:33 35.73135 -81.33389 12377 ft 315 kts 153°
2026-05-05 01:33 35.71248 -81.32030 11790 ft 311 kts 153°
2026-05-05 01:34 35.69396 -81.30691 11226 ft 307 kts 153°
2026-05-05 01:34 35.67585 -81.29374 11024 ft 301 kts 152°
2026-05-05 01:34 35.65991 -81.27681 10994 ft 307 kts 132°
2026-05-05 01:34 35.64926 -81.25421 10991 ft 313 kts 112°
2026-05-05 01:35 35.64528 -81.22753 10989 ft 317 kts 90°
2026-05-05 01:35 35.64694 -81.20086 10997 ft 317 kts 85°
2026-05-05 01:35 35.64897 -81.17383 10997 ft 318 kts 85°
2026-05-05 01:35 35.65104 -81.14678 10996 ft 318 kts 84°
2026-05-05 01:36 35.65324 -81.11946 11000 ft 333 kts 85°
2026-05-05 01:36 35.65341 -81.08977 10993 ft 356 kts 101°
2026-05-05 01:36 35.64515 -81.06123 10998 ft 357 kts 123°
2026-05-05 01:36 35.62956 -81.03804 10689 ft 348 kts 140°
2026-05-05 01:37 35.61193 -81.01834 10208 ft 333 kts 142°
2026-05-05 01:37 35.59511 -81.00032 10070 ft 308 kts 147°
2026-05-05 01:37 35.57796 -80.98814 9689 ft 291 kts 162°
2026-05-05 01:37 35.55881 -80.98192 9111 ft 280 kts 178°
2026-05-05 01:38 35.53960 -80.98018 8661 ft 278 kts 180°
2026-05-05 01:38 35.52022 -80.97850 7988 ft 278 kts 179°
2026-05-05 01:38 35.50103 -80.97682 7322 ft 276 kts 179°
2026-05-05 01:38 35.48194 -80.97516 6672 ft 274 kts 179°
2026-05-05 01:39 35.46302 -80.97352 6001 ft 272 kts 179°
2026-05-05 01:39 35.44425 -80.97189 5295 ft 270 kts 179°
2026-05-05 01:39 35.42561 -80.97028 4661 ft 265 kts 179°
2026-05-05 01:39 35.40768 -80.96871 4243 ft 252 kts 179°
2026-05-05 01:40 35.39070 -80.96724 3917 ft 237 kts 179°
2026-05-05 01:40 35.37474 -80.96586 3609 ft 223 kts 179°
2026-05-05 01:40 35.35962 -80.96456 3339 ft 212 kts 179°
2026-05-05 01:40 35.34524 -80.96332 3055 ft 203 kts 179°
2026-05-05 01:41 35.33150 -80.96213 2797 ft 193 kts 179°
2026-05-05 01:41 35.31849 -80.96101 2566 ft 182 kts 179°
2026-05-05 01:41 35.30636 -80.95996 2331 ft 169 kts 180°
2026-05-05 01:41 35.29519 -80.95899 2113 ft 156 kts 179°
2026-05-05 01:42 35.28484 -80.95810 1906 ft 142 kts 179°
2026-05-05 01:42 35.27541 -80.95728 1735 ft 129 kts 180°
2026-05-05 01:42 35.26685 -80.95655 1564 ft 125 kts 179°
2026-05-05 01:42 35.25836 -80.95583 1400 ft 124 kts 178°
2026-05-05 01:43 35.24977 -80.95509 1229 ft 124 kts 178°
2026-05-05 01:43 35.24114 -80.95437 1094 ft 124 kts 178°
2026-05-05 01:43 35.23253 -80.95362 899 ft 125 kts 177°
2026-05-05 01:43 35.22392 -80.95286 744 ft 118 kts 176°
2026-05-05 01:44 35.21736 -80.95230 742 ft 56 kts 176°
2026-05-05 01:44 35.21522 -80.95214 738 ft 27 kts 176°
2026-05-05 01:44 35.21354 -80.95186 738 ft 23 kts 162°
2026-05-05 01:44 35.21213 -80.95098 735 ft 18 kts 144°
2026-05-05 01:45 35.21202 -80.94991 733 ft 16 kts 28°
2026-05-05 01:45 35.21313 -80.94991 733 ft 17 kts 357°
2026-05-05 01:45 35.21430 -80.94998 733 ft 17 kts 353°
2026-05-05 01:45 35.21544 -80.95013 733 ft 14 kts 357°
2026-05-05 01:46 35.21576 -80.94932 732 ft 16 kts 130°
2026-05-05 01:46 35.21556 -80.94800 732 ft 16 kts 86°
2026-05-05 01:46 35.21563 -80.94671 732 ft 16 kts 86°
2026-05-05 01:46 35.21571 -80.94540 732 ft 18 kts 86°
2026-05-05 01:47 35.21643 -80.94436 732 ft 16 kts 16°
2026-05-05 01:47 35.21756 -80.94402 732 ft 15 kts 14°
2026-05-05 01:47 35.21848 -80.94388 732 ft 10 kts 356°
2026-05-05 01:47 35.21870 -80.94442 732 ft 5 kts 281°
2026-05-05 01:48 35.21878 -80.94476 732 ft 2 kts 286°
2026-05-05 01:48 35.21878 -80.94479 731 ft 0 kts 285°